Wind_Speed
2 7 17 18 18 18 18 17 16 14 13 12 12 13 13 13 13 13 11 10 9 10 10 10 10 9 8 7 5 4 3 2 2 4 5 7 10 12 11 10 10 10 11
5 9 16 17 18 18 18 16 14 13 12 11 10 11 11 10 10 10 10 9 8 9 9 9 9 7 6 6 6 6 6 7 7 7 7 9 11 11 9 9 7 9 10
5 13 17 16 17 18 18 16 15 13 10 10 10 9 9 9 8 8 7 7 7 8 8 8 7 6 5 6 7 9 10 10 10 10 9 7 10 11 10 7 6 8 9
8 14 14 14 14 16 16 16 15 13 11 10 10 10 10 8 7 7 6 5 5 6 6 6 5 4 3 5 7 9 11 13 11 8 9 7 6 9 9 6 7 8 8
11 11 11 12 12 14 15 15 15 13 12 11 11 11 11 10 9 7 5 4 3 3 5 5 5 4 3 4 6 9 14 14 11 5 6 1 3 7 8 8 7 8 7
10 12 10 10 10 12 13 14 14 13 12 12 11 12 13 14 12 9 7 5 4 5 6 6 5 5 4 5 6 10 15 14 9 8 7 4 1 5 6 7 7 7 7
4 6 6 7 8 9 11 12 13 13 13 12 12 12 14 15 14 13 11 9 7 8 8 8 7 7 6 6 7 11 17 16 9 9 9 10 8 3 5 6 7 6 6
6 4 3 4 6 9 11 12 13 13 13 13 12 13 15 16 17 16 14 13 12 11 11 11 9 10 9 9 9 12 17 16 12 12 11 11 10 12 9 7 7 6 6
8 7 4 3 5 10 12 12 13 14 14 14 13 14 14 16 18 18 17 17 16 16 14 14 13 13 12 11 12 13 17 18 15 14 12 13 10 10 11 10 9 8 9
4 4 6 6 6 9 12 13 14 14 15 15 14 15 16 17 19 21 21 22 21 20 18 18 16 16 15 14 14 15 18 21 17 13 13 13 12 10 10 11 10 10 10
4 4 6 7 7 7 11 14 15 16 16 17 17 18 18 20 21 23 25 24 24 23 22 22 20 19 19 18 17 18 19 23 19 16 17 15 15 15 9 12 12 11 11
2 4 8 10 10 9 8 10 14 16 18 19 20 21 22 23 24 25 26 26 28 28 28 26 25 23 23 22 21 21 23 23 24 18 17 16 16 16 14 12 13 14 13
14 8 3 10 10 12 13 12 13 12 12 16 22 25 25 26 27 28 29 29 32 32 33 31 30 29 28 27 25 24 24 24 27 21 17 23 21 21 19 17 16 17 15
7 6 6 5 7 9 8 11 13 16 17 16 16 18 24 29 29 30 31 33 35 37 37 37 36 35 33 32 29 28 27 26 27 28 22 23 23 22 22 19 19 19 18
11 10 5 1 4 11 13 11 11 14 17 19 18 17 18 21 23 25 32 34 37 38 38 37 39 40 39 36 34 32 30 29 29 33 27 28 27 25 23 21 20 20 21
8 9 9 7 6 5 8 9 10 10 13 17 19 21 22 24 24 26 29 32 36 38 40 39 39 39 42 40 37 37 34 31 31 36 30 30 30 28 26 24 22 22 23
7 7 9 11 10 5 5 6 8 12 17 17 19 22 20 23 26 28 31 33 34 38 40 41 41 40 39 39 41 40 39 35 32 39 36 34 34 31 29 27 26 24 24
1 6 8 10 10 11 9 5 7 10 13 17 20 23 24 26 26 27 28 35 38 38 41 43 45 46 40 40 43 44 43 39 37 40 40 39 36 34 32 28 28 27 25
6 8 11 13 13 13 11 10 8 10 13 15 16 21 25 28 28 29 32 31 34 37 42 45 48 50 46 44 45 43 43 42 41 43 44 42 41 36 35 34 31 29 27
9 11 11 14 15 15 14 14 12 14 13 13 14 16 19 25 30 32 32 33 34 35 38 44 46 48 53 46 46 45 40 38 44 47 47 43 43 38 37 35 33 30 26
10 9 10 14 15 17 22 23 23 24 23 21 20 20 22 22 23 25 28 29 31 35 34 39 44 49 54 50 48 45 48 47 49 51 47 44 42 42 40 38 36 33 31
11 11 12 14 16 17 21 23 25 27 28 27 26 24 24 25 27 27 28 31 32 29 31 36 43 50 55 53 51 40 31 43 54 54 52 41 42 44 46 43 40 37 33
10 10 12 14 17 18 21 24 28 30 33 36 37 36 35 31 28 26 30 30 29 29 31 29 31 51 44 47 52 38 17 22 32 52 57 49 45 50 47 43 45 40 38
6 7 13 18 20 20 23 27 31 31 34 36 38 40 41 41 38 31 27 31 33 32 32 31 32 28 33 43 46 56 44 35 13 10 39 44 46 54 44 48 44 45 41
8 12 16 23 22 24 31 36 35 37 36 35 38 42 42 40 35 27 22 29 34 29 29 28 26 30 27 24 39 39 42 32 39 28 25 39 54 52 46 57 49 49 43
9 14 14 13 17 23 28 29 31 32 36 42 44 41 42 38 38 29 25 28 24 26 27 24 23 25 28 34 20 29 41 40 37 41 34 45 57 53 50 57 52 50 48
Wind_Direction
196 164 166 163 161 158 154 150 148 148 148 145 133 131 125 121 117 122 127 131 134 136 140 136 137 139 140 146 150 168 159 112 112 141 151 134 120 115 109 104 102 115 113
190 161 169 163 160 160 159 157 155 156 156 161 156 148 138 130 122 116 120 126 133 139 144 143 142 140 130 138 146 132 118 118 119 125 129 130 125 119 107 102 105 123 124
169 161 167 164 162 161 163 164 165 165 167 176 180 170 161 149 135 127 125 135 142 148 151 154 151 143 141 144 140 129 124 119 115 107 115 125 129 125 125 126 131 132 131
132 152 158 158 161 163 166 170 172 176 180 191 194 194 188 175 172 161 149 143 148 159 161 166 167 158 154 148 139 130 121 117 100 91 105 81 134 140 139 145 145 142 141
99 133 140 151 161 167 171 175 181 186 191 199 205 207 206 200 200 195 184 168 173 196 201 197 192 185 181 163 151 135 129 126 119 103 153 47 169 156 153 156 155 149 150
93 112 130 150 163 171 176 180 186 192 197 205 211 213 213 214 213 214 214 211 220 228 227 229 215 219 214 192 167 145 145 144 135 148 184 232 324 174 168 162 162 152 153
117 113 121 146 171 182 189 191 192 197 202 210 213 217 219 221 220 222 225 230 235 242 242 242 232 232 230 217 187 158 162 154 145 176 218 250 253 240 194 174 165 168 170
203 185 162 163 184 196 201 203 204 204 209 212 215 219 222 224 226 226 228 231 237 244 246 248 239 236 232 223 206 177 173 167 168 191 212 252 272 252 221 198 192 190 183
223 226 210 210 216 208 211 216 216 215 215 218 221 223 225 228 230 233 235 235 238 242 245 249 241 239 234 227 213 195 188 172 175 196 221 255 275 245 226 218 212 209 206
256 274 262 253 248 235 229 225 226 225 227 228 229 229 229 232 234 235 237 238 240 243 244 247 244 242 239 232 219 208 199 193 191 219 221 252 271 270 230 219 213 213 216
234 275 292 290 273 265 249 241 237 237 235 235 234 234 233 233 236 238 240 242 245 247 247 247 245 242 241 235 226 217 208 205 200 215 225 242 268 262 260 234 216 218 220
227 269 285 315 324 327 310 283 258 250 248 248 245 242 241 240 240 243 244 247 247 248 248 248 248 245 243 240 233 225 218 209 205 211 228 241 252 254 257 263 242 224 224
71 90 71 228 271 313 322 321 314 290 290 272 260 252 248 247 246 244 244 243 246 246 246 245 244 243 243 244 239 234 229 219 208 215 222 240 248 243 249 260 268 234 228
36 45 83 125 190 226 259 288 297 302 300 295 308 275 259 256 254 252 250 247 246 247 246 246 246 245 243 243 240 240 235 229 215 219 221 239 241 240 243 255 268 256 226
24 17 17 15 198 226 228 249 266 289 290 293 294 287 279 273 266 265 260 258 254 251 249 248 249 248 245 240 241 239 238 236 224 218 222 230 237 239 241 252 263 262 234
6 350 339 334 320 301 237 239 235 275 281 277 276 268 267 268 266 262 257 250 254 258 255 248 249 249 246 242 239 243 241 239 228 221 226 229 236 237 236 246 259 259 244
43 343 354 6 11 347 327 251 223 235 256 261 270 273 269 267 268 269 263 257 252 250 255 258 250 248 245 242 240 240 243 240 231 221 224 228 230 233 235 240 248 257 250
134 340 358 5 3 12 8 317 270 257 264 269 271 271 274 268 266 264 262 263 262 257 252 252 255 254 246 242 240 237 237 238 232 223 224 227 228 225 226 230 245 254 250
46 32 17 20 24 20 13 9 345 312 297 295 301 296 285 286 280 273 270 268 264 264 261 254 248 251 249 245 239 238 237 235 230 227 226 224 226 225 224 226 240 250 246
51 43 22 15 19 2 9 356 355 352 350 341 325 316 299 289 292 292 289 281 274 269 266 261 253 247 246 251 243 241 245 240 234 231 229 228 226 224 225 224 232 238 240
32 33 15 10 21 0 358 355 350 344 339 333 330 322 314 314 310 303 298 292 281 279 273 268 266 253 242 242 239 228 237 233 228 229 229 222 220 220 228 224 226 229 232
38 14 358 9 10 360 348 344 337 331 327 325 320 312 310 308 305 304 303 304 303 292 278 270 267 244 240 238 224 223 222 218 226 224 225 215 222 220 228 225 227 225 223
14 6 7 1 356 352 343 335 330 325 322 322 321 318 317 311 304 299 301 303 299 298 295 276 265 243 239 228 224 218 218 224 214 215 220 217 226 224 213 221 222 225 226
58 358 340 339 339 338 338 333 328 327 326 323 319 314 314 314 315 307 297 298 301 298 292 292 287 285 258 234 230 217 235 229 192 223 221 218 223 220 225 218 229 222 218
4 354 332 323 324 327 329 325 322 319 314 317 316 314 312 315 316 317 310 297 291 295 299 295 282 280 283 287 260 225 218 227 217 224 228 236 224 222 227 228 222 216 219
4 348 351 341 329 325 325 320 318 322 319 320 322 317 312 313 317 306 296 302 299 287 288 293 291 281 287 281 295 251 229 219 231 215 214 222 217 222 213 216 214 217 218
Height
1519 1521 1524 1527 1528 1531 1534 1535 1537 1540 1542 1544 1546 1547 1548 1549 1551 1552 1553 1554 1556 1557 1558 1558 1559 1560 1561 1562 1562 1563 1564 1564 1565 1565 1565 1565 1564 1565 1565 1565 1565 1565 1567
1520 1522 1524 1526 1528 1531 1534 1536 1539 1541 1542 1545 1546 1548 1549 1550 1551 1552 1554 1555 1556 1558 1559 1560 1560 1561 1562 1562 1563 1564 1565 1565 1565 1565 1565 1565 1565 1566 1567 1567 1568 1567 1567
1520 1522 1525 1527 1528 1530 1533 1536 1538 1541 1543 1546 1547 1548 1549 1550 1552 1553 1554 1556 1557 1558 1560 1561 1562 1562 1563 1563 1564 1564 1564 1564 1565 1564 1565 1566 1566 1567 1568 1569 1570 1570 1570
1520 1521 1524 1526 1528 1530 1533 1535 1537 1540 1543 1545 1546 1547 1549 1550 1551 1553 1554 1555 1557 1558 1559 1560 1562 1563 1564 1564 1565 1566 1566 1565 1565 1564 1565 1567 1566 1568 1568 1570 1571 1572 1572
1519 1520 1522 1524 1526 1529 1532 1534 1536 1539 1542 1544 1545 1546 1548 1549 1551 1552 1554 1555 1556 1557 1558 1559 1560 1561 1563 1564 1566 1566 1568 1568 1567 1566 1565 1568 1568 1568 1568 1569 1571 1572 1573
1519 1520 1521 1523 1525 1528 1530 1533 1536 1538 1540 1542 1543 1544 1546 1548 1550 1552 1553 1554 1555 1557 1557 1559 1560 1561 1562 1563 1565 1567 1568 1568 1568 1567 1566 1568 1570 1569 1570 1569 1570 1572 1574
1519 1521 1522 1524 1525 1527 1529 1532 1534 1537 1538 1539 1541 1542 1544 1546 1548 1550 1552 1553 1554 1555 1557 1558 1559 1560 1561 1563 1564 1566 1566 1567 1568 1567 1568 1568 1569 1569 1570 1570 1570 1571 1573
1521 1522 1523 1524 1526 1527 1529 1531 1533 1534 1536 1537 1539 1540 1542 1544 1546 1548 1549 1551 1553 1554 1556 1557 1558 1559 1560 1562 1564 1565 1566 1567 1566 1565 1567 1568 1568 1568 1569 1569 1570 1571 1572
1521 1522 1523 1524 1525 1526 1527 1529 1531 1533 1534 1536 1538 1539 1541 1543 1546 1547 1549 1550 1550 1551 1552 1554 1555 1557 1558 1560 1562 1564 1565 1566 1564 1564 1565 1567 1567 1567 1568 1568 1569 1570 1571
1521 1522 1522 1523 1523 1524 1525 1526 1527 1529 1532 1534 1535 1537 1539 1541 1543 1544 1545 1546 1547 1548 1550 1551 1553 1554 1555 1557 1559 1561 1562 1563 1563 1562 1562 1564 1565 1566 1566 1567 1568 1569 1570
1520 1520 1520 1521 1521 1522 1522 1523 1524 1526 1529 1531 1532 1533 1535 1537 1539 1540 1541 1543 1545 1546 1547 1548 1549 1550 1552 1553 1555 1557 1558 1559 1561 1560 1561 1562 1563 1563 1564 1564 1566 1567 1568
1521 1521 1520 1520 1520 1521 1521 1522 1522 1524 1526 1527 1529 1530 1532 1533 1534 1536 1539 1541 1542 1543 1543 1545 1547 1548 1548 1549 1551 1553 1554 1556 1556 1556 1556 1559 1560 1561 1561 1562 1563 1565 1566
1522 1521 1520 1521 1520 1521 1520 1519 1520 1521 1523 1524 1526 1526 1528 1528 1529 1531 1533 1535 1535 1537 1538 1539 1540 1541 1542 1545 1547 1548 1550 1552 1554 1553 1553 1554 1555 1557 1559 1559 1560 1561 1563
1519 1520 1519 1519 1518 1520 1521 1521 1520 1520 1521 1522 1523 1523 1523 1525 1526 1527 1527 1527 1527 1528 1529 1531 1533 1534 1535 1536 1539 1542 1544 1546 1549 1549 1550 1552 1552 1553 1555 1557 1557 1558 1560
1516 1517 1517 1518 1517 1517 1517 1518 1520 1519 1519 1520 1519 1520 1520 1521 1522 1523 1523 1524 1523 1523 1524 1527 1528 1528 1528 1530 1531 1534 1536 1540 1543 1544 1545 1547 1547 1549 1551 1553 1553 1555 1557
1513 1513 1514 1514 1514 1515 1515 1515 1517 1518 1518 1518 1518 1517 1517 1517 1517 1516 1517 1518 1518 1517 1517 1519 1518 1520 1522 1525 1527 1528 1530 1532 1535 1539 1540 1542 1543 1545 1546 1548 1549 1550 1552
1512 1512 1512 1511 1511 1510 1511 1513 1513 1513 1513 1513 1513 1512 1513 1514 1514 1513 1514 1513 1512 1512 1509 1510 1510 1512 1515 1519 1520 1521 1521 1524 1526 1529 1532 1536 1537 1539 1540 1542 1543 1545 1548
1512 1511 1512 1511 1510 1509 1508 1508 1509 1509 1510 1510 1509 1508 1507 1507 1508 1506 1506 1506 1507 1507 1506 1504 1503 1502 1505 1509 1510 1511 1513 1516 1517 1520 1523 1528 1530 1532 1535 1537 1539 1540 1542
1512 1513 1513 1512 1510 1509 1509 1509 1508 1508 1508 1507 1507 1506 1505 1503 1502 1501 1499 1498 1497 1497 1497 1496 1495 1494 1495 1497 1499 1502 1505 1510 1510 1511 1513 1517 1523 1525 1528 1531 1533 1535 1536
1512 1514 1513 1513 1512 1510 1509 1508 1508 1507 1506 1505 1504 1502 1502 1500 1498 1496 1494 1492 1490 1488 1487 1486 1486 1486 1485 1488 1491 1493 1498 1504 1507 1506 1505 1510 1514 1519 1521 1524 1526 1529 1531
1512 1513 1513 1513 1512 1511 1509 1506 1505 1503 1503 1503 1501 1499 1496 1494 1492 1490 1487 1483 1481 1480 1478 1478 1476 1476 1478 1480 1484 1484 1486 1490 1489 1496 1499 1498 1504 1510 1514 1518 1521 1522 1525
1512 1513 1513 1513 1513 1510 1508 1506 1504 1501 1499 1498 1496 1494 1493 1490 1487 1483 1481 1479 1476 1472 1470 1469 1468 1465 1464 1465 1471 1473 1475 1467 1477 1482 1489 1486 1492 1500 1504 1508 1513 1517 1519
1512 1512 1512 1513 1512 1510 1508 1504 1501 1497 1493 1489 1486 1484 1484 1484 1482 1479 1474 1473 1471 1468 1463 1460 1460 1453 1451 1454 1455 1460 1464 1467 1466 1469 1473 1475 1482 1492 1491 1500 1502 1510 1514
1513 1512 1510 1510 1509 1508 1505 1502 1499 1495 1490 1487 1482 1480 1477 1476 1474 1471 1470 1468 1463 1462 1458 1454 1452 1448 1446 1442 1443 1444 1441 1453 1456 1458 1460 1455 1472 1480 1483 1490 1494 1501 1507
1512 1509 1508 1507 1506 1505 1502 1500 1495 1491 1488 1484 1481 1476 1472 1468 1467 1465 1464 1461 1459 1455 1453 1449 1445 1443 1441 1438 1431 1436 1431 1438 1444 1445 1456 1460 1465 1470 1472 1478 1484 1491 1499
1509 1509 1508 1507 1506 1504 1501 1499 1494 1490 1485 1479 1475 1469 1464 1461 1459 1459 1457 1455 1453 1448 1446 1442 1439 1435 1435 1434 1431 1432 1430 1428 1430 1436 1442 1450 1450 1457 1463 1468 1469 1479 1487